This is the latest recevied weather packets stored in our database for station/object KK6LVQ-13. If no packets are shown the sender has not sent any weather packets the latest 10 day(s).
| Time | Temp. | Humidity | Pressure | Rain* | Wind** | Luminosity | Snow |
|---|---|---|---|---|---|---|---|
| 1777667714 | 23.33° C | 57% | 1019.1 hPa | 0 mm | - | 793 W/m² | - |
| 1777667412 | 23.89° C | 56% | 1019.1 hPa | 0 mm | - | 779 W/m² | - |
| 1777667109 | 23.89° C | 57% | 1019 hPa | 0 mm | - | 741 W/m² | - |
| 1777666805 | 23.89° C | 58% | 1019.1 hPa | 0 mm | - | 671 W/m² | - |
| 1777666503 | 23.33° C | 56% | 1019 hPa | 0 mm | - | 771 W/m² | - |
| 1777666199 | 23.33° C | 57% | 1019.1 hPa | 0 mm | - | 740 W/m² | - |
| 1777665896 | 22.78° C | 61% | 1019.2 hPa | 0 mm | - | 756 W/m² | - |
| 1777665593 | 22.78° C | 58% | 1019.2 hPa | 0 mm | - | 767 W/m² | - |
| 1777665290 | 22.22° C | 59% | 1019.4 hPa | 0 mm | - | 725 W/m² | - |
| 1777664986 | 21.67° C | 60% | 1019.2 hPa | 0 mm | - | 781 W/m² | - |
| 1777664681 | 21.67° C | 61% | 1019.4 hPa | 0 mm | - | 764 W/m² | - |
| 1777664378 | 22.22° C | 59% | 1019.4 hPa | 0 mm | - | 782 W/m² | - |
| 1777664076 | 22.22° C | 60% | 1019.5 hPa | 0 mm | - | 767 W/m² | - |
| 1777663773 | 21.67° C | 59% | 1019.5 hPa | 0 mm | - | 755 W/m² | - |
| 1777663471 | 21.11° C | 61% | 1019.6 hPa | 0 mm | - | 739 W/m² | - |
| 1777663168 | 21.11° C | 58% | 1019.8 hPa | 0 mm | - | 734 W/m² | - |
| 1777662865 | 20.56° C | 60% | 1019.7 hPa | 0 mm | - | 702 W/m² | - |
| 1777662562 | 20° C | 59% | 1019.8 hPa | 0 mm | - | 742 W/m² | - |
| 1777662258 | 20° C | 64% | 1020 hPa | 0 mm | - | 756 W/m² | - |
| 1777661958 | 19.44° C | 65% | 1020 hPa | 0 mm | - | 721 W/m² | - |
| 1777661654 | 19.44° C | 69% | 1020 hPa | 0 mm | - | 731 W/m² | - |
| 1777661350 | 18.89° C | 67% | 1020 hPa | 0 mm | - | 699 W/m² | - |
| 1777661047 | 18.33° C | 69% | 1020 hPa | 0 mm | - | 701 W/m² | - |
| 1777660741 | 17.78° C | 69% | 1020.2 hPa | 0 mm | - | 731 W/m² | - |
| 1777660439 | 17.78° C | 72% | 1020.4 hPa | 0 mm | - | 716 W/m² | - |
* Rain latest hour (hover to see other rain measurements)
** Current wind speed in m/s (hover to see current wind gust speed)